| time (UTC) | temp C | wind direction | speed KPH | gust KPH | rain 1hr cm | rain 24hr cm | rain mn cm | humidity % | barometer mb |
| 20260902060825 | 15 | 204 | 0.0 | 0.0 | 0.00 | 0.03 | 0.03 | 84 | 1011.6 |
| 20260902060318 | 15 | 201 | 0.0 | 0.0 | 0.00 | 0.03 | 0.03 | 84 | 1011.8 |
| 20260902055830 | 15 | 201 | 0.0 | 1.6 | 0.00 | 0.03 | 0.03 | 84 | 1011.7 |
| 20260902055323 | 15 | 201 | 0.0 | 1.6 | 0.00 | 0.03 | 0.03 | 84 | 1011.8 |
| 20260902054816 | 15 | 202 | 0.0 | 8.0 | 0.00 | 0.03 | 0.03 | 83 | 1012.0 |
| 20260902054317 | 15 | 202 | 0.0 | 8.0 | 0.00 | 0.03 | 0.03 | 83 | 1012.1 |
| 20260902053831 | 15 | 216 | 0.0 | 1.6 | 0.00 | 0.03 | 0.03 | 83 | 1012.2 |
| 20260902053345 | 15 | 240 | 0.0 | 0.0 | 0.00 | 0.03 | 0.03 | 82 | 1012.2 |
| 20260902052837 | 16 | 239 | 0.0 | 1.6 | 0.00 | 0.03 | 0.03 | 82 | 1012.2 |
| 20260902052327 | 16 | 239 | 0.0 | 1.6 | 0.00 | 0.03 | 0.03 | 82 | 1012.0 |
| 20260902051843 | 16 | 239 | 0.0 | 0.0 | 0.00 | 0.03 | 0.03 | 82 | 1012.0 |
| 20260902051335 | 16 | 239 | 0.0 | 0.0 | 0.00 | 0.03 | 0.03 | 82 | 1012.0 |
| 20260902050827 | 16 | 239 | 0.0 | 0.0 | 0.00 | 0.03 | 0.03 | 82 | 1012.0 |
| 20260902050320 | 16 | 239 | 0.0 | 0.0 | 0.00 | 0.03 | 0.03 | 82 | 1012.0 |
| 20260902045853 | 16 | 239 | 0.0 | 0.0 | 0.00 | 0.03 | 0.03 | 82 | 1012.0 |
| 20260902045325 | 16 | 239 | 0.0 | 3.2 | 0.00 | 0.03 | 0.03 | 82 | 1012.0 |
| 20260902044822 | 16 | 225 | 0.0 | 0.0 | 0.00 | 0.03 | 0.03 | 82 | 1012.0 |
| 20260902044335 | 16 | 225 | 0.0 | 1.6 | 0.00 | 0.03 | 0.03 | 81 | 1012.1 |
| 20260902043828 | 16 | 224 | 0.0 | 1.6 | 0.00 | 0.03 | 0.03 | 81 | 1011.9 |
| 20260902043320 | 16 | 224 | 0.0 | 0.0 | 0.00 | 0.03 | 0.03 | 81 | 1012.0 |
| 20260902042833 | 16 | 224 | 0.0 | 0.0 | 0.00 | 0.03 | 0.03 | 81 | 1011.9 |
| 20260902042346 | 16 | 224 | 0.0 | 0.0 | 0.00 | 0.03 | 0.03 | 81 | 1011.9 |
| 20260902041838 | 16 | 224 | 0.0 | 0.0 | 0.00 | 0.03 | 0.03 | 81 | 1011.9 |
| 20260902041331 | 16 | 224 | 0.0 | 0.0 | 0.00 | 0.03 | 0.03 | 81 | 1012.0 |
| 20260902040825 | 16 | 224 | 0.0 | 0.0 | 0.00 | 0.03 | 0.03 | 80 | 1012.0 |
| 20260902040317 | 16 | 224 | 0.0 | 0.0 | 0.00 | 0.03 | 0.03 | 80 | 1012.0 |
| 20260902035833 | 16 | 224 | 0.0 | 0.0 | 0.00 | 0.03 | 0.03 | 80 | 1011.9 |
| 20260902035326 | 16 | 224 | 0.0 | 0.0 | 0.00 | 0.03 | 0.03 | 80 | 1011.8 |
| 20260902034820 | 16 | 224 | 0.0 | 0.0 | 0.00 | 0.03 | 0.03 | 79 | 1011.8 |
| 20260902034333 | 16 | 224 | 0.0 | 0.0 | 0.00 | 0.03 | 0.03 | 78 | 1011.8 |
| 20260902033827 | 16 | 224 | 0.0 | 0.0 | 0.00 | 0.03 | 0.03 | 78 | 1011.8 |
| 20260902033320 | 16 | 224 | 0.0 | 0.0 | 0.00 | 0.03 | 0.03 | 78 | 1011.8 |
| 20260902032834 | 16 | 224 | 0.0 | 0.0 | 0.00 | 0.03 | 0.03 | 77 | 1011.8 |
| 20260902032347 | 16 | 224 | 0.0 | 0.0 | 0.00 | 0.03 | 0.03 | 77 | 1011.8 |
| 20260902031839 | 16 | 224 | 0.0 | 0.0 | 0.00 | 0.03 | 0.03 | 77 | 1011.9 |
| 20260902031316 | 16 | 224 | 0.0 | 0.0 | 0.00 | 0.03 | 0.03 | 77 | 1012.0 |
| 20260902030830 | 16 | 224 | 0.0 | 0.0 | 0.00 | 0.03 | 0.03 | 76 | 1011.9 |
| 20260902030322 | 17 | 224 | 0.0 | 0.0 | 0.00 | 0.03 | 0.03 | 76 | 1011.9 |
| 20260902025834 | 17 | 224 | 0.0 | 0.0 | 0.00 | 0.03 | 0.03 | 76 | 1012.0 |
| 20260902025327 | 17 | 224 | 0.0 | 1.6 | 0.00 | 0.03 | 0.03 | 76 | 1012.0 |
| 20260902024819 | 17 | 224 | 0.0 | 1.6 | 0.00 | 0.03 | 0.03 | 76 | 1012.0 |
| 20260902024312 | 17 | 224 | 0.0 | 1.6 | 0.00 | 0.03 | 0.03 | 75 | 1012.0 |
| 20260902023828 | 17 | 224 | 0.0 | 0.0 | 0.00 | 0.03 | 0.03 | 75 | 1012.0 |
| 20260902023324 | 17 | 224 | 0.0 | 0.0 | 0.00 | 0.03 | 0.03 | 74 | 1012.0 |
| 20260902022837 | 17 | 224 | 0.0 | 0.0 | 0.00 | 0.03 | 0.03 | 74 | 1012.0 |
| 20260902022331 | 17 | 224 | 0.0 | 0.0 | 0.00 | 0.03 | 0.03 | 74 | 1012.0 |
| 20260902021827 | 17 | 224 | 0.0 | 0.0 | 0.00 | 0.03 | 0.03 | 74 | 1012.0 |
| 20260902021320 | 17 | 224 | 0.0 | 0.0 | 0.00 | 0.03 | 0.03 | 74 | 1011.9 |
| 20260902020833 | 17 | 224 | 0.0 | 0.0 | 0.00 | 0.03 | 0.03 | 74 | 1012.0 |
| 20260902020326 | 17 | 224 | 0.0 | 0.0 | 0.00 | 0.03 | 0.03 | 74 | 1011.9 |
| 20260902015819 | 17 | 224 | 0.0 | 1.6 | 0.00 | 0.03 | 0.03 | 73 | 1011.9 |
| 20260902015316 | 17 | 224 | 0.0 | 1.6 | 0.00 | 0.03 | 0.03 | 73 | 1011.8 |
| 20260902014829 | 17 | 224 | 0.0 | 0.0 | 0.00 | 0.03 | 0.03 | 73 | 1011.8 |
| 20260902014322 | 17 | 224 | 0.0 | 0.0 | 0.00 | 0.03 | 0.03 | 72 | 1011.8 |
| 20260902013855 | 17 | 224 | 0.0 | 0.0 | 0.00 | 0.03 | 0.03 | 72 | 1011.8 |
| 20260902013327 | 17 | 224 | 0.0 | 0.0 | 0.00 | 0.03 | 0.03 | 72 | 1011.8 |
| 20260902012818 | 17 | 196 | 0.0 | 0.0 | 0.00 | 0.03 | 0.03 | 71 | 1011.8 |
| 20260902012331 | 17 | 196 | 0.0 | 0.0 | 0.00 | 0.03 | 0.03 | 71 | 1011.7 |
| 20260902011827 | 17 | 196 | 0.0 | 0.0 | 0.00 | 0.03 | 0.03 | 72 | 1011.7 |
| 20260902011319 | 17 | 196 | 0.0 | 0.0 | 0.00 | 0.03 | 0.03 | 72 | 1011.6 |
| 20260902010818 | 17 | 196 | 0.0 | 0.0 | 0.00 | 0.03 | 0.03 | 72 | 1011.6 |
| 20260902010330 | 17 | 196 | 0.0 | 0.0 | 0.00 | 0.03 | 0.03 | 73 | 1011.6 |
| 20260902005824 | 17 | 196 | 0.0 | 0.0 | 0.00 | 0.03 | 0.03 | 73 | 1011.6 |
| 20260902005316 | 17 | 196 | 0.0 | 0.0 | 0.00 | 0.03 | 0.03 | 73 | 1011.6 |
| 20260902004829 | 17 | 196 | 0.0 | 0.0 | 0.00 | 0.03 | 0.03 | 74 | 1011.6 |
| 20260902004327 | 17 | 196 | 0.0 | 0.0 | 0.00 | 0.03 | 0.03 | 73 | 1011.7 |
| 20260902003819 | 17 | 196 | 0.0 | 0.0 | 0.00 | 0.03 | 0.03 | 74 | 1011.6 |
| 20260902003331 | 17 | 196 | 0.0 | 0.0 | 0.00 | 0.03 | 0.03 | 74 | 1011.7 |
| 20260902002828 | 17 | 196 | 0.0 | 0.0 | 0.00 | 0.03 | 0.03 | 75 | 1011.7 |
| 20260902002341 | 17 | 196 | 0.0 | 0.0 | 0.00 | 0.03 | 0.03 | 74 | 1011.7 |
| 20260902001853 | 17 | 196 | 0.0 | 0.0 | 0.00 | 0.03 | 0.03 | 75 | 1011.8 |
| 20260902001325 | 17 | 196 | 0.0 | 0.0 | 0.00 | 0.03 | 0.03 | 75 | 1011.9 |
| 20260902000817 | 17 | 196 | 0.0 | 0.0 | 0.00 | 0.03 | 0.03 | 75 | 1011.8 |
| 20260902000330 | 17 | 196 | 0.0 | 0.0 | 0.00 | 0.03 | 0.03 | 75 | 1011.7 |
| 20260901235823 | 17 | 196 | 0.0 | 0.0 | 0.00 | 0.03 | 0.03 | 74 | 1011.8 |
| 20260901235316 | 17 | 196 | 0.0 | 0.0 | 0.00 | 0.03 | 0.03 | 73 | 1011.7 |
| 20260901234832 | 17 | 196 | 0.0 | 0.0 | 0.00 | 0.03 | 0.03 | 73 | 1011.7 |
| 20260901234329 | 17 | 196 | 0.0 | 0.0 | 0.00 | 0.03 | 0.03 | 74 | 1011.7 |
| 20260901233823 | 17 | 196 | 0.0 | 0.0 | 0.00 | 0.03 | 0.03 | 74 | 1011.8 |
| 20260901233355 | 17 | 196 | 0.0 | 0.0 | 0.00 | 0.03 | 0.03 | 74 | 1011.8 |
| 20260901232827 | 17 | 196 | 0.0 | 0.0 | 0.00 | 0.03 | 0.03 | 74 | 1011.7 |
| 20260901232320 | 17 | 196 | 0.0 | 0.0 | 0.00 | 0.03 | 0.03 | 73 | 1011.6 |
| 20260901231836 | 18 | 196 | 0.0 | 0.0 | 0.00 | 0.03 | 0.03 | 72 | 1011.7 |
| 20260901231332 | 18 | 196 | 0.0 | 1.6 | 0.00 | 0.03 | 0.03 | 71 | 1011.6 |
| 20260901230825 | 18 | 196 | 0.0 | 1.6 | 0.00 | 0.03 | 0.03 | 70 | 1011.7 |
| 20260901230318 | 18 | 196 | 0.0 | 0.0 | 0.00 | 0.03 | 0.03 | 70 | 1011.7 |
| 20260901225851 | 18 | 196 | 0.0 | 0.0 | 0.00 | 0.03 | 0.03 | 70 | 1011.6 |
| 20260901225344 | 18 | 196 | 0.0 | 0.0 | 0.00 | 0.03 | 0.03 | 70 | 1011.6 |
| 20260901224837 | 18 | 196 | 0.0 | 0.0 | 0.00 | 0.03 | 0.03 | 70 | 1011.6 |
| 20260901224334 | 18 | 196 | 0.0 | 0.0 | 0.00 | 0.03 | 0.03 | 70 | 1011.6 |
| 20260901223827 | 18 | 196 | 0.0 | 0.0 | 0.00 | 0.03 | 0.03 | 70 | 1011.6 |
| 20260901223321 | 18 | 196 | 0.0 | 0.0 | 0.00 | 0.03 | 0.03 | 69 | 1011.6 |
| 20260901222835 | 18 | 196 | 0.0 | 0.0 | 0.00 | 0.03 | 0.03 | 69 | 1011.6 |
| 20260901222349 | 18 | 196 | 0.0 | 0.0 | 0.00 | 0.03 | 0.03 | 69 | 1011.6 |
| 20260901221822 | 18 | 192 | 0.0 | 1.6 | 0.00 | 0.03 | 0.03 | 69 | 1011.5 |
| 20260901221334 | 18 | 191 | 0.0 | 1.6 | 0.00 | 0.03 | 0.03 | 68 | 1011.4 |
| 20260901220849 | 18 | 191 | 0.0 | 0.0 | 0.00 | 0.03 | 0.03 | 68 | 1011.6 |
| 20260901220321 | 18 | 191 | 0.0 | 0.0 | 0.00 | 0.03 | 0.03 | 68 | 1011.5 |
| 20260901215841 | 18 | 191 | 0.0 | 0.0 | 0.00 | 0.03 | 0.03 | 68 | 1011.4 |
| 20260901215353 | 18 | 191 | 0.0 | 1.6 | 0.00 | 0.03 | 0.03 | 68 | 1011.5 |
| 20260901214845 | 18 | 191 | 0.0 | 1.6 | 0.00 | 0.03 | 0.03 | 68 | 1011.3 |
| 20260901214318 | 18 | 191 | 0.0 | 0.0 | 0.00 | 0.03 | 0.03 | 68 | 1011.3 |
| 20260901213831 | 18 | 191 | 0.0 | 0.0 | 0.00 | 0.03 | 0.03 | 68 | 1011.3 |
| 20260901213348 | 18 | 191 | 0.0 | 0.0 | 0.00 | 0.03 | 0.03 | 68 | 1011.2 |
| 20260901212822 | 18 | 191 | 0.0 | 0.0 | 0.00 | 0.03 | 0.03 | 67 | 1011.3 |
| 20260901212316 | 18 | 191 | 0.0 | 6.4 | 0.00 | 0.03 | 0.03 | 67 | 1011.3 |
| 20260901211828 | 18 | 195 | 0.0 | 3.2 | 0.00 | 0.03 | 0.03 | 66 | 1011.3 |
| 20260901211322 | 18 | 195 | 0.0 | 3.2 | 0.00 | 0.03 | 0.03 | 67 | 1011.3 |
| 20260901210818 | 18 | 195 | 0.0 | 3.2 | 0.00 | 0.03 | 0.03 | 67 | 1011.3 |
| 20260901210332 | 18 | 180 | 0.0 | 0.0 | 0.00 | 0.03 | 0.03 | 68 | 1011.3 |
| 20260901205825 | 18 | 180 | 0.0 | 3.2 | 0.00 | 0.03 | 0.03 | 68 | 1011.2 |
| 20260901205321 | 18 | 180 | 0.0 | 6.4 | 0.00 | 0.03 | 0.03 | 66 | 1011.2 |
| 20260901204854 | 18 | 175 | 0.0 | 6.4 | 0.00 | 0.03 | 0.03 | 66 | 1011.2 |
| 20260901204327 | 18 | 209 | 0.0 | 1.6 | 0.00 | 0.03 | 0.03 | 66 | 1011.3 |
| 20260901203820 | 18 | 209 | 0.0 | 4.8 | 0.00 | 0.03 | 0.03 | 65 | 1011.3 |
| 20260901203334 | 18 | 209 | 0.0 | 6.4 | 0.00 | 0.03 | 0.03 | 65 | 1011.3 |
| 20260901202827 | 18 | 190 | 0.0 | 6.4 | 0.00 | 0.03 | 0.03 | 65 | 1011.4 |
| 20260901202324 | 18 | 160 | 0.0 | 3.2 | 0.00 | 0.03 | 0.03 | 68 | 1011.4 |
| 20260901201818 | 18 | 125 | 0.0 | 6.4 | 0.00 | 0.03 | 0.03 | 67 | 1011.5 |
| 20260901201332 | 18 | 223 | 1.6 | 6.4 | 0.00 | 0.03 | 0.03 | 68 | 1011.4 |
| 20260901200825 | 18 | 274 | 0.0 | 0.0 | 0.00 | 0.03 | 0.03 | 69 | 1011.6 |
| 20260901200319 | 18 | 274 | 0.0 | 1.6 | 0.00 | 0.03 | 0.03 | 68 | 1011.5 |
| 20260901195832 | 18 | 274 | 0.0 | 1.6 | 0.00 | 0.03 | 0.03 | 68 | 1011.6 |
| 20260901195346 | 18 | 278 | 0.0 | 3.2 | 0.00 | 0.03 | 0.03 | 67 | 1011.6 |
| 20260901194818 | 18 | 278 | 0.0 | 3.2 | 0.00 | 0.03 | 0.03 | 69 | 1011.6 |
| 20260901194316 | 18 | 218 | 0.0 | 4.8 | 0.00 | 0.03 | 0.03 | 69 | 1011.6 |
| 20260901193829 | 18 | 224 | 0.0 | 4.8 | 0.00 | 0.03 | 0.03 | 69 | 1011.6 |
| 20260901193323 | 18 | 227 | 0.0 | 1.6 | 0.00 | 0.03 | 0.03 | 69 | 1011.6 |
| 20260901192816 | 18 | 200 | 0.0 | 4.8 | 0.00 | 0.03 | 0.03 | 69 | 1011.6 |
| 20260901192327 | 18 | 200 | 0.0 | 4.8 | 0.00 | 0.03 | 0.03 | 69 | 1011.7 |
| 20260901191823 | 18 | 202 | 0.0 | 0.0 | 0.00 | 0.03 | 0.03 | 71 | 1011.7 |
| 20260901191317 | 18 | 202 | 0.0 | 0.0 | 0.00 | 0.03 | 0.03 | 71 | 1011.9 |
| 20260901190830 | 18 | 202 | 0.0 | 0.0 | 0.00 | 0.03 | 0.03 | 72 | 1012.0 |
| 20260901190330 | 18 | 202 | 0.0 | 8.0 | 0.00 | 0.03 | 0.03 | 72 | 1012.0 |
| 20260901185823 | 18 | 202 | 0.0 | 8.0 | 0.00 | 0.03 | 0.03 | 72 | 1012.0 |
| 20260901185317 | 18 | 247 | 0.0 | 1.6 | 0.00 | 0.03 | 0.03 | 73 | 1012.0 |
| 20260901184830 | 18 | 218 | 0.0 | 0.0 | 0.03 | 0.03 | 0.03 | 73 | 1012.0 |
| 20260901184322 | 18 | 218 | 0.0 | 0.0 | 0.03 | 0.03 | 0.03 | 73 | 1012.0 |
| 20260901183816 | 18 | 218 | 0.0 | 3.2 | 0.03 | 0.03 | 0.03 | 73 | 1012.0 |
| 20260901183332 | 18 | 218 | 0.0 | 3.2 | 0.03 | 0.03 | 0.03 | 74 | 1012.0 |
| 20260901182825 | 17 | 218 | 0.0 | 3.2 | 0.03 | 0.03 | 0.03 | 74 | 1012.1 |
| 20260901182324 | 17 | 218 | 0.0 | 3.2 | 0.03 | 0.03 | 0.03 | 75 | 1012.1 |
| 20260901181820 | 17 | 217 | 0.0 | 1.6 | 0.03 | 0.03 | 0.03 | 75 | 1012.1 |
| 20260901181353 | 17 | 217 | 0.0 | 0.0 | 0.03 | 0.03 | 0.03 | 76 | 1012.0 |
| 20260901180826 | 17 | 217 | 0.0 | 0.0 | 0.03 | 0.03 | 0.03 | 77 | 1012.0 |
| 20260901180320 | 17 | 217 | 0.0 | 0.0 | 0.03 | 0.03 | 0.03 | 78 | 1012.0 |
| 20260901175834 | 17 | 217 | 0.0 | 0.0 | 0.03 | 0.03 | 0.03 | 79 | 1012.0 |
| 20260901175327 | 16 | 217 | 0.0 | 0.0 | 0.03 | 0.03 | 0.03 | 80 | 1012.1 |
| 20260901174824 | 16 | 217 | 0.0 | 1.6 | 0.00 | 0.00 | 0.00 | 80 | 1012.2 |
| 20260901174322 | 16 | 217 | 0.0 | 1.6 | 0.00 | 0.00 | 0.00 | 80 | 1012.1 |
| 20260901173835 | 16 | 217 | 0.0 | 0.0 | 0.00 | 0.00 | 0.00 | 80 | 1012.1 |
| 20260901173329 | 16 | 217 | 0.0 | 1.6 | 0.00 | 0.00 | 0.00 | 80 | 1012.1 |
| 20260901172825 | 17 | 217 | 0.0 | 0.0 | 0.00 | 0.00 | 0.00 | 80 | 1012.1 |
| 20260901172318 | 17 | 217 | 0.0 | 0.0 | 0.00 | 0.00 | 0.00 | 80 | 1012.0 |
| 20260901171835 | 17 | 216 | 0.0 | 0.0 | 0.00 | 0.00 | 0.00 | 80 | 1011.9 |
| 20260901171329 | 17 | 214 | 0.0 | 0.0 | 0.00 | 0.00 | 0.00 | 80 | 1011.9 |
| 20260901170823 | 17 | 214 | 0.0 | 0.0 | 0.00 | 0.00 | 0.00 | 81 | 1011.8 |
| 20260901170320 | 16 | 214 | 0.0 | 0.0 | 0.00 | 0.00 | 0.00 | 82 | 1011.9 |
| 20260901165834 | 16 | 211 | 0.0 | 4.8 | 0.00 | 0.00 | 0.00 | 83 | 1011.9 |
| 20260901165347 | 16 | 210 | 0.0 | 4.8 | 0.00 | 0.00 | 0.00 | 83 | 1011.9 |
| 20260901164818 | 16 | 192 | 0.0 | 1.6 | 0.00 | 0.00 | 0.00 | 84 | 1011.8 |
| 20260901164331 | 16 | 192 | 0.0 | 1.6 | 0.00 | 0.00 | 0.00 | 84 | 1011.9 |
| 20260901163824 | 16 | 192 | 0.0 | 1.6 | 0.00 | 0.00 | 0.00 | 84 | 1011.9 |
| 20260901163317 | 16 | 192 | 0.0 | 0.0 | 0.00 | 0.00 | 0.00 | 85 | 1012.0 |
| 20260901162828 | 16 | 192 | 0.0 | 1.6 | 0.00 | 0.00 | 0.00 | 86 | 1012.0 |
| 20260901162321 | 16 | 195 | 0.0 | 0.0 | 0.00 | 0.00 | 0.00 | 86 | 1012.0 |
| 20260901161820 | 15 | 195 | 0.0 | 0.0 | 0.00 | 0.00 | 0.00 | 87 | 1012.0 |
| 20260901161337 | 15 | 195 | 0.0 | 4.8 | 0.00 | 0.00 | 0.00 | 88 | 1012.0 |
| 20260901160833 | 15 | 195 | 0.0 | 4.8 | 0.00 | 0.00 | 0.00 | 88 | 1012.1 |
| 20260901160347 | 15 | 196 | 0.0 | 0.0 | 0.00 | 0.00 | 0.00 | 89 | 1012.1 |
| 20260901155840 | 15 | 196 | 0.0 | 0.0 | 0.00 | 0.00 | 0.00 | 89 | 1012.1 |
| 20260901155332 | 15 | 196 | 0.0 | 0.0 | 0.00 | 0.00 | 0.00 | 89 | 1012.1 |
| 20260901154827 | 15 | 196 | 0.0 | 0.0 | 0.00 | 0.00 | 0.00 | 89 | 1012.1 |
| 20260901154319 | 15 | 196 | 0.0 | 0.0 | 0.00 | 0.00 | 0.00 | 89 | 1012.1 |
| 20260901153835 | 15 | 196 | 0.0 | 0.0 | 0.00 | 0.00 | 0.00 | 89 | 1012.1 |
| 20260901153332 | 15 | 196 | 0.0 | 0.0 | 0.00 | 0.00 | 0.00 | 89 | 1012.1 |
| 20260901152824 | 15 | 196 | 0.0 | 0.0 | 0.00 | 0.00 | 0.00 | 89 | 1012.1 |
| 20260901152317 | 14 | 196 | 0.0 | 0.0 | 0.00 | 0.00 | 0.00 | 89 | 1012.1 |
| 20260901151833 | 14 | 196 | 0.0 | 0.0 | 0.00 | 0.00 | 0.00 | 89 | 1012.1 |
| 20260901151326 | 14 | 196 | 0.0 | 0.0 | 0.00 | 0.00 | 0.00 | 89 | 1012.1 |
| 20260901150822 | 14 | 196 | 0.0 | 0.0 | 0.00 | 0.00 | 0.00 | 89 | 1012.1 |
| 20260901150333 | 14 | 196 | 0.0 | 0.0 | 0.00 | 0.00 | 0.00 | 90 | 1012.0 |
| 20260901145825 | 14 | 196 | 0.0 | 0.0 | 0.00 | 0.00 | 0.00 | 90 | 1012.0 |
| 20260901145322 | 13 | 196 | 0.0 | 0.0 | 0.00 | 0.00 | 0.00 | 90 | 1012.0 |
| 20260901144835 | 13 | 196 | 0.0 | 0.0 | 0.00 | 0.00 | 0.00 | 90 | 1012.0 |
| 20260901144328 | 13 | 196 | 0.0 | 0.0 | 0.00 | 0.00 | 0.00 | 90 | 1012.0 |
| 20260901143821 | 13 | 196 | 0.0 | 0.0 | 0.00 | 0.00 | 0.00 | 89 | 1012.0 |
| 20260901143334 | 13 | 196 | 0.0 | 0.0 | 0.00 | 0.00 | 0.00 | 89 | 1012.0 |
| 20260901142827 | 13 | 194 | 0.0 | 0.0 | 0.00 | 0.00 | 0.00 | 89 | 1012.0 |
| 20260901142318 | 13 | 194 | 0.0 | 0.0 | 0.00 | 0.00 | 0.00 | 89 | 1011.9 |
| 20260901141851 | 13 | 194 | 0.0 | 0.0 | 0.00 | 0.00 | 0.00 | 89 | 1011.8 |
| 20260901141346 | 13 | 194 | 0.0 | 0.0 | 0.00 | 0.00 | 0.00 | 89 | 1011.8 |
| 20260901140818 | 13 | 194 | 0.0 | 0.0 | 0.00 | 0.00 | 0.00 | 89 | 1011.8 |
| 20260901140339 | 13 | 194 | 0.0 | 0.0 | 0.00 | 0.00 | 0.00 | 90 | 1011.8 |
| 20260901135851 | 13 | 194 | 0.0 | 0.0 | 0.00 | 0.00 | 0.00 | 90 | 1011.7 |
| 20260901135323 | 12 | 194 | 0.0 | 0.0 | 0.00 | 0.00 | 0.00 | 89 | 1011.6 |
| 20260901134816 | 12 | 194 | 0.0 | 0.0 | 0.00 | 0.00 | 0.00 | 90 | 1011.6 |
| 20260901134329 | 12 | 194 | 0.0 | 0.0 | 0.00 | 0.00 | 0.00 | 90 | 1011.6 |
| 20260901133824 | 12 | 194 | 0.0 | 0.0 | 0.00 | 0.00 | 0.00 | 90 | 1011.6 |
| 20260901133340 | 12 | 194 | 0.0 | 0.0 | 0.00 | 0.00 | 0.00 | 89 | 1011.5 |
| 20260901132835 | 12 | 194 | 0.0 | 0.0 | 0.00 | 0.00 | 0.00 | 89 | 1011.6 |
| 20260901132327 | 12 | 194 | 0.0 | 0.0 | 0.00 | 0.00 | 0.00 | 89 | 1011.6 |
| 20260901131824 | 12 | 194 | 0.0 | 0.0 | 0.00 | 0.00 | 0.00 | 89 | 1011.6 |
| 20260901131337 | 12 | 194 | 0.0 | 0.0 | 0.00 | 0.00 | 0.00 | 89 | 1011.6 |
| 20260901130829 | 12 | 194 | 0.0 | 0.0 | 0.00 | 0.00 | 0.00 | 89 | 1011.6 |
| 20260901130320 | 12 | 194 | 0.0 | 0.0 | 0.00 | 0.00 | 0.00 | 90 | 1011.6 |
| 20260901125813 | 12 | 194 | 0.0 | 0.0 | 0.00 | 0.00 | 0.00 | 89 | 1011.6 |
| 20260901125349 | 12 | 194 | 0.0 | 0.0 | 0.00 | 0.00 | 0.00 | 89 | 1011.5 |
| 20260901124820 | 12 | 194 | 0.0 | 0.0 | 0.00 | 0.00 | 0.00 | 89 | 1011.5 |
| 20260901124333 | 12 | 194 | 0.0 | 0.0 | 0.00 | 0.00 | 0.00 | 89 | 1011.4 |
| 20260901123825 | 12 | 194 | 0.0 | 0.0 | 0.00 | 0.00 | 0.00 | 90 | 1011.4 |
| 20260901123339 | 12 | 194 | 0.0 | 0.0 | 0.00 | 0.00 | 0.00 | 89 | 1011.5 |
| 20260901122831 | 12 | 194 | 0.0 | 0.0 | 0.00 | 0.00 | 0.00 | 90 | 1011.5 |
| 20260901122327 | 12 | 194 | 0.0 | 0.0 | 0.00 | 0.00 | 0.00 | 90 | 1011.5 |
| 20260901121820 | 12 | 194 | 0.0 | 0.0 | 0.00 | 0.00 | 0.00 | 90 | 1011.6 |
| 20260901121333 | 12 | 194 | 0.0 | 0.0 | 0.00 | 0.00 | 0.00 | 90 | 1011.5 |
| 20260901120827 | 12 | 194 | 0.0 | 0.0 | 0.00 | 0.00 | 0.00 | 90 | 1011.4 |
| 20260901120320 | 12 | 194 | 0.0 | 0.0 | 0.00 | 0.00 | 0.00 | 90 | 1011.3 |
| 20260901115832 | 12 | 194 | 0.0 | 0.0 | 0.00 | 0.00 | 0.00 | 90 | 1011.4 |
| 20260901115326 | 12 | 194 | 0.0 | 0.0 | 0.00 | 0.00 | 0.00 | 90 | 1011.3 |
| 20260901114823 | 12 | 194 | 0.0 | 0.0 | 0.00 | 0.00 | 0.00 | 91 | 1011.2 |
| 20260901114320 | 12 | 194 | 0.0 | 0.0 | 0.00 | 0.00 | 0.00 | 90 | 1011.3 |
| 20260901113833 | 12 | 194 | 0.0 | 0.0 | 0.00 | 0.00 | 0.00 | 90 | 1011.2 |
| 20260901113328 | 12 | 194 | 0.0 | 0.0 | 0.00 | 0.00 | 0.00 | 90 | 1011.3 |
| 20260901112822 | 12 | 194 | 0.0 | 0.0 | 0.00 | 0.00 | 0.00 | 89 | 1011.3 |
| 20260901112335 | 12 | 194 | 0.0 | 0.0 | 0.00 | 0.00 | 0.00 | 89 | 1011.3 |
| 20260901111828 | 12 | 194 | 0.0 | 0.0 | 0.00 | 0.00 | 0.00 | 89 | 1011.2 |
| 20260901111321 | 12 | 194 | 0.0 | 0.0 | 0.00 | 0.00 | 0.00 | 90 | 1011.1 |
| 20260901110818 | 12 | 194 | 0.0 | 0.0 | 0.00 | 0.00 | 0.00 | 89 | 1011.1 |
| 20260901110331 | 12 | 194 | 0.0 | 0.0 | 0.00 | 0.00 | 0.00 | 90 | 1011.1 |
| 20260901105824 | 12 | 194 | 0.0 | 0.0 | 0.00 | 0.00 | 0.00 | 90 | 1011.1 |
| 20260901105317 | 12 | 194 | 0.0 | 0.0 | 0.00 | 0.00 | 0.00 | 90 | 1011.2 |
| 20260901104830 | 12 | 194 | 0.0 | 0.0 | 0.00 | 0.00 | 0.00 | 91 | 1011.1 |
| 20260901104323 | 12 | 194 | 0.0 | 0.0 | 0.00 | 0.00 | 0.00 | 91 | 1011.2 |
| 20260901103819 | 12 | 194 | 0.0 | 0.0 | 0.00 | 0.00 | 0.00 | 91 | 1011.0 |
| 20260901103332 | 12 | 194 | 0.0 | 0.0 | 0.00 | 0.00 | 0.00 | 91 | 1011.2 |
| 20260901102832 | 12 | 194 | 0.0 | 0.0 | 0.00 | 0.00 | 0.00 | 90 | 1011.2 |
| 20260901102325 | 12 | 194 | 0.0 | 0.0 | 0.00 | 0.00 | 0.00 | 90 | 1011.2 |
| 20260901101820 | 12 | 194 | 0.0 | 0.0 | 0.00 | 0.00 | 0.00 | 90 | 1011.1 |
| 20260901101333 | 12 | 194 | 0.0 | 0.0 | 0.00 | 0.00 | 0.00 | 89 | 1011.1 |
| 20260901100826 | 12 | 194 | 0.0 | 0.0 | 0.00 | 0.00 | 0.00 | 89 | 1011.1 |
| 20260901100339 | 12 | 194 | 0.0 | 0.0 | 0.00 | 0.00 | 0.00 | 89 | 1011.0 |
| 20260901095851 | 12 | 194 | 0.0 | 0.0 | 0.00 | 0.00 | 0.00 | 89 | 1011.0 |
| 20260901095326 | 12 | 194 | 0.0 | 0.0 | 0.00 | 0.00 | 0.00 | 89 | 1010.9 |
| 20260901094819 | 12 | 194 | 0.0 | 0.0 | 0.00 | 0.00 | 0.00 | 89 | 1010.9 |
| 20260901094316 | 12 | 194 | 0.0 | 0.0 | 0.00 | 0.00 | 0.00 | 89 | 1011.0 |
| 20260901093830 | 12 | 194 | 0.0 | 0.0 | 0.00 | 0.00 | 0.00 | 88 | 1011.0 |
| 20260901093323 | 12 | 194 | 0.0 | 0.0 | 0.00 | 0.00 | 0.00 | 88 | 1011.0 |
| 20260901092818 | 12 | 194 | 0.0 | 0.0 | 0.00 | 0.00 | 0.00 | 88 | 1011.1 |
| 20260901092332 | 12 | 194 | 0.0 | 0.0 | 0.00 | 0.00 | 0.00 | 88 | 1011.0 |
| 20260901091826 | 12 | 194 | 0.0 | 0.0 | 0.00 | 0.00 | 0.00 | 88 | 1011.1 |
| 20260901091340 | 12 | 194 | 0.0 | 0.0 | 0.00 | 0.00 | 0.00 | 88 | 1011.1 |
| 20260901090832 | 12 | 194 | 0.0 | 0.0 | 0.00 | 0.00 | 0.00 | 87 | 1011.1 |
| 20260901090326 | 12 | 194 | 0.0 | 0.0 | 0.00 | 0.00 | 0.00 | 87 | 1010.9 |
| 20260901085822 | 12 | 194 | 0.0 | 0.0 | 0.00 | 0.00 | 0.00 | 87 | 1010.8 |
| 20260901085319 | 12 | 194 | 0.0 | 0.0 | 0.00 | 0.00 | 0.00 | 87 | 1010.8 |
| 20260901084832 | 13 | 194 | 0.0 | 0.0 | 0.00 | 0.00 | 0.00 | 87 | 1010.7 |
| 20260901084329 | 13 | 194 | 0.0 | 0.0 | 0.00 | 0.00 | 0.00 | 87 | 1010.7 |
| 20260901083822 | 13 | 194 | 0.0 | 0.0 | 0.00 | 0.00 | 0.00 | 87 | 1010.7 |
| 20260901083315 | 13 | 194 | 0.0 | 0.0 | 0.00 | 0.00 | 0.00 | 86 | 1010.7 |
| 20260901082830 | 13 | 194 | 0.0 | 0.0 | 0.00 | 0.00 | 0.00 | 86 | 1010.6 |
| 20260901082323 | 13 | 194 | 0.0 | 0.0 | 0.00 | 0.00 | 0.00 | 85 | 1010.6 |
| 20260901081820 | 13 | 194 | 0.0 | 0.0 | 0.00 | 0.00 | 0.00 | 85 | 1010.7 |
| 20260901081332 | 13 | 194 | 0.0 | 0.0 | 0.00 | 0.00 | 0.00 | 85 | 1010.7 |
| 20260901080827 | 13 | 194 | 0.0 | 0.0 | 0.00 | 0.00 | 0.00 | 85 | 1010.7 |
| 20260901080321 | 13 | 194 | 0.0 | 0.0 | 0.00 | 0.00 | 0.00 | 85 | 1010.8 |
| 20260901075834 | 13 | 194 | 0.0 | 0.0 | 0.00 | 0.00 | 0.00 | 85 | 1010.7 |
| 20260901075327 | 13 | 194 | 0.0 | 0.0 | 0.00 | 0.00 | 0.00 | 85 | 1010.7 |
| 20260901074822 | 13 | 194 | 0.0 | 0.0 | 0.00 | 0.00 | 0.00 | 84 | 1010.7 |
| 20260901074320 | 13 | 194 | 0.0 | 0.0 | 0.00 | 0.00 | 0.00 | 84 | 1010.7 |
| 20260901073833 | 13 | 194 | 0.0 | 0.0 | 0.00 | 0.00 | 0.00 | 84 | 1010.6 |
| 20260901073325 | 13 | 194 | 0.0 | 0.0 | 0.00 | 0.00 | 0.00 | 84 | 1010.6 |
| 20260901072839 | 13 | 194 | 0.0 | 0.0 | 0.00 | 0.00 | 0.00 | 84 | 1010.5 |
| 20260901072331 | 13 | 194 | 0.0 | 0.0 | 0.00 | 0.00 | 0.00 | 84 | 1010.4 |
| 20260901071827 | 13 | 194 | 0.0 | 0.0 | 0.00 | 0.00 | 0.00 | 85 | 1010.3 |
| 20260901071320 | 13 | 194 | 0.0 | 0.0 | 0.00 | 0.00 | 0.00 | 84 | 1010.2 |
| 20260901070837 | 13 | 194 | 0.0 | 0.0 | 0.00 | 0.00 | 0.00 | 84 | 1010.3 |
| 20260901070332 | 14 | 194 | 0.0 | 0.0 | 0.00 | 0.00 | 0.00 | 83 | 1010.3 |
| 20260901065831 | 14 | 194 | 0.0 | 0.0 | 0.00 | 0.00 | 0.00 | 83 | 1010.3 |
| 20260901065328 | 14 | 194 | 0.0 | 0.0 | 0.00 | 0.00 | 0.00 | 82 | 1010.3 |
| 20260901064821 | 15 | 194 | 0.0 | 0.0 | 0.00 | 0.00 | 0.00 | 82 | 1010.2 |
| 20260901064334 | 15 | 194 | 0.0 | 0.0 | 0.00 | 0.00 | 0.00 | 82 | 1010.2 |
| 20260901063829 | 15 | 194 | 0.0 | 0.0 | 0.00 | 0.00 | 0.00 | 82 | 1010.2 |
| 20260901063321 | 15 | 194 | 0.0 | 0.0 | 0.00 | 0.00 | 0.00 | 81 | 1010.2 |
| 20260901062834 | 15 | 194 | 0.0 | 0.0 | 0.00 | 0.00 | 0.00 | 81 | 1010.2 |
| 20260901062327 | 15 | 194 | 0.0 | 0.0 | 0.00 | 0.00 | 0.00 | 81 | 1010.2 |
| 20260901061824 | 15 | 194 | 0.0 | 0.0 | 0.00 | 0.00 | 0.00 | 81 | 1010.1 |
| 20260901061336 | 15 | 194 | 0.0 | 0.0 | 0.00 | 0.00 | 0.00 | 81 | 1010.1 |